Location: Bouchavesnes-Bergen
(49.9859°N, 2.9203°E)
Time: 00:06:50
(UTC+00:00)

Cosmos 468 Rocket - Pass Details

Date: 09 March 2021
Orbit: 745 x 779 km, 74.0° (Epoch: 13 April)

Event Time Altitude Azimuth Distance (km) Brightness Sun altitude
Rises 05:28:45 0° 336° (NNW) 3,238 7.0 -8.2°
Reaches altitude 10° 05:31:09 10° 337° (NNW) 2,303 6.3 -7.8°
Maximum altitude 05:36:23 85° 65° (ENE) 765 4.1 -7.0°
Drops below altitude 10° 05:41:32 10° 156° (SSE) 2,266 6.8 -6.2°
Sets 05:43:52 0° 157° (SSE) 3,182 7.5 -5.8°
